STARLINK-2140, 47730

Orbit data source: Space-Track

STARLINK-2140, 47730 is a payload satellite owned by SpaceX/Seattle (US) in LEO that was launched on Thu, 04 Mar 2021 UTC via an FALCON 9 launch vehicle from the Air Force Eastern Test Range (AFETR). Payload-class satellites include a variety of spacecraft equipped with specific instruments for various scientific and technological missions. These include communications satellites like Starlink; space stations such as the ISS; scientific satellites like the Hubble; Earth observation satellites from companies like Planet Labs, Umbra, and HawkEye 360; GPS; miniature CubeSats for education and research; and military/defense satellites.

Loading next visibility...
Identifier
47730, 2021-017J
Orbit
LEO
Country
Flag of USUS
Related business
Manufacturer
SpaceX/Seattle
Mission
Operational Commercial Communications
Bus & Motor
STARLINK, Unknown motor
Mass
260 kg wet, ~248 kg dry
Launch date (UTC)
2021-03-04 (5 years ago)
Launch vehicle
FALCON 9
Launch site
Air Force Eastern Test Range (AFETR)
Object type
Payload
Rocket body
Debris
Shape & HBR
Box + 1 Pan, 10.1 m
Radar Cross Section
13.562 m², Large (>1 m²)

Expand to show TLE details & history
Last TLE update: 1 day ago

TLE from 1 day ago
0 STARLINK-2140
1 47730U 21017J   26235.31221077  .00004538  00000-0  15770-3 0  9996
2 47730  53.1612 161.5940 0001482  84.7659 275.3512 15.31742200303186
Epoch: 2026-08-23T07:29Z
TLE epoch observation values (Epoch: 2026-08-23T07:29:35.010Z)
Latitude
0.00001°
Longitude
77.58806°
Altitude
471.42 km
Speed
7.632 km/s
True Right ascension
10h 46m 22s
True Declination
0° 00' 00"
Sunlit
Object was in daylight at epoch
Visualization orbit readout
Latitude
Unknown
Longitude
Unknown
Altitude
Unknown
Speed
Unknown
Apparent Right ascension
Unknown
Apparent Declination
Unknown
Sunlit
N/A
Visualization observer readout
Local Sidereal Time
02:49:29
Azimuth
Unknown
Elevation
Unknown
Doppler factor
Unknown
Orbital elements
Apogee altitude
471.886 km
Perigee altitude
469.856 km
Semi-major axis
6,849.008 km
Eccentricity
0.00015
Inclination
53.1612°
RAAN
161.594°
Arg. of periapsis
84.7659°
True anomaly
275.33429°
Mean anomaly
275.3512°
Eccentric anomaly
275.34275°
Mean motion
3.82914 °/min
Orbital period
94.02 mins
BSTAR
0.0001577
Loading maneuver chart data...
Computing Atmospheric mass density...

Documentation

Showing up to 5 results
|